Lexington Weather

Lexington, Massachusetts, USA

44°F
5/12/2021 4:36am 
  • Lexington Conditions: Clear
  • Temperature: 44.4°F / 6.9°CColder 0.6°F than last hour.
  • Dew Point: 33.4°FIncreased 0.7°Fsince last hour.
  • Relative Humidity: 65%Increased 3.0% since last hour.
  • Wind: Wind from W W 1 mph, 10-min avg: 1 mph, gust: 7 mph
  • Barometer: 29.92 in Steady
  • Visibility: 10 miles
  • Rain Today: 0.00 in
  •   

Regional Weather Roundup
for Boston / Norton, MA

        
000
ASUS41 KBOX 061904
RWRBOX

REGIONAL WEATHER ROUNDUP
NATIONAL WEATHER SERVICE BOSTON/NORTON MA
300 PM EDT THU MAY 06 2021

NOTE:  "FAIR" INDICATES FEW OR NO CLOUDS BELOW 12,000 FEET WITH NO 
SIGNIFICANT WEATHER AND/OR OBSTRUCTIONS TO VISIBILITY.

MAZALL-062000-
EASTERN MASSACHUSETTS
  
CITY           SKY/WX    TMP DP  RH WIND       PRES   REMARKS
BOSTON         MOSUNNY   65  32  29 N10G21    29.82F                  
BEVERLY        SUNNY     63  33  32 NW13G22   29.81S                  
LAWRENCE       SUNNY     63  31  30 NW13G23   29.84R                  
BEDFORD        MOSUNNY   64  34  32 NW13G23   29.82S                  
BLUE HILL        N/A     62  34  35 NW10G20   29.82S                  
NORWOOD        SUNNY     65  33  30 W15G22    29.83F                  
MARSHFIELD     SUNNY     64  36  34 VRB7G17   29.82S                  
PLYMOUTH       SUNNY     63  33  32 NW10G17   29.82S                  
TAUNTON        SUNNY     65  33  30 W12G17    29.83F                  
NEW BEDFORD    SUNNY     64  34  32 NW10G21   29.82F                  
$$

MAZALL-062000-
CAPE COD AND THE ISLANDS
  
CITY           SKY/WX    TMP DP  RH WIND       PRES   REMARKS
FALMOUTH       SUNNY     63  36  36 NW17      29.83S                  
HYANNIS        SUNNY     61  37  41 N15G21    29.81F                  
CHATHAM        SUNNY     61  36  39 NW9G21    29.84S                  
PROVINCETOWN   SUNNY     57  41  55 NW8       29.84F                  
NANTUCKET      SUNNY     63  40  42 NW10      29.84S                  
MARTHAS VNYRD  SUNNY     65  36  34 NW9G17    29.83F                  
$$
 
MAZALL-062000-
CENTRAL AND WESTERN MASSACHUSETTS
  
CITY           SKY/WX    TMP DP  RH WIND       PRES   REMARKS
WORCESTER      SUNNY     60  32  34 NW14G22   29.85F                  
FITCHBURG      SUNNY     61  34  36 NW10      29.84F                  
ORANGE         SUNNY     61  29  29 NW16G22   29.86F                  
SPRINGFIELD    MOSUNNY   63  29  27 N16G25    29.84F                  
WESTFIELD      SUNNY     64  33  31 NW10      29.85F                  
NORTH ADAMS    SUNNY     59  30  33 NW14G21   29.88F                  
PITTSFIELD     SUNNY     56  33  42 NW15G26   29.88F                  
$$
 
RIZALL-062000-
RHODE ISLAND
  
CITY           SKY/WX    TMP DP  RH WIND       PRES   REMARKS
PROVIDENCE     MOSUNNY   65  35  33 NW15G23   29.84F                  
NEWPORT        SUNNY     61  36  39 NW8G21    29.84F                  
BLOCK ISLAND   SUNNY     61  39  44 W8        29.86F                  
SMITHFIELD       N/A     62  37  39 N8G22     29.84F                  
WESTERLY       SUNNY     62  33  33 NW9       29.84F                  
$$
 
CTZALL-062000-
CONNECTICUT
  
CITY           SKY/WX    TMP DP  RH WIND       PRES   REMARKS
BRADLEY INTL   SUNNY     64  31  28 W14G23    29.85F                  
HARTFORD       SUNNY     65  32  29 N9G23     29.85F                  
BRIDGEPORT     SUNNY     65  32  29 N12       29.87F                  
DANBURY        SUNNY     64  33  31 N12G18    29.89F                  
GROTON         SUNNY     64  35  34 N9G20     29.84F                  
NEW HAVEN      SUNNY     67  33  28 NW17      29.86F                  
CHESTER        FAIR      64  30  27 NW13G23   29.86F                  
MERIDEN        SUNNY     65  28  24 NW9       29.86F                  
WILLIMANTIC    SUNNY     63  33  32 NW7       29.85F                  
OXFORD         SUNNY     60  30  32 NW16G23   29.88F                  
$$

MEZ002-015-021-024-NHZ003-005-008-011-012-014-VTZ005-008-062000-
NORTHERN NEW ENGLAND
  
CITY           SKY/WX    TMP DP  RH WIND       PRES   REMARKS
PORTLAND ME    MOSUNNY   61  36  39 N18G26    29.79S                  
BANGOR ME      PTSUNNY   55  40  56 NW16G22   29.76R                  
CONCORD NH     SUNNY     62  28  27 N20G25    29.83S                  
MANCHESTER NH  MOSUNNY   64  27  24 NW13G26   29.82F                  
NASHUA NH      SUNNY     63  30  28 NW16G25   29.83F                  
PORTSMOUTH NH  SUNNY     63  25  23 NW23G29   29.81F                  
JAFFREY NH     SUNNY     58  30  34 NW9       29.85F                  
KEENE NH       MOSUNNY   59  32  36 N13G20    29.86F                  
BURLINGTON VT  MOSUNNY   58  27  30 N17G24    29.92F                  
MT. WASHINGTON FOG       23  23 100 NW59G68     N/A  VSB 1/16WCI   0  
$$

NYZ052-076-062000-
EASTERN NEW YORK
  
CITY           SKY/WX    TMP DP  RH WIND       PRES   REMARKS
ALBANY         MOSUNNY   57  34  41 NW14      29.91F                  
NEW YORK CITY  MOSUNNY   64  32  30 NW16      29.89F                  
$$
 
ANZALL-062000-
MARINE OBSERVATIONS
  
STATION/POSITION TIME  TEMP    WIND        PRES    VSBY  WAVE
                       AIR SEA DIR/SP/G                  HT/PER
                 (UTC) (F)     (DEG/KT/KT) (MB)    (MI)  (FT/S)
BOSTON BUOY      1840   53 47  300/ 10/ 12 1009.9R
BUZZARDS BAY     1800          290/ 13/ 14 1011.8S
NANTUCKET SOUND  1840      52                N/A
MASS BAY-STELLWA 1804   54     310/ 10/ 16 1008.8R  1 7/8  3/ 6
ISLE OF SHOALS   1800   56     300/ 22/ 25 1008.6F
S OF BLOCK IS    1826      49                N/A           3/11
$$

......................KEY.........................
  SKY/WX - SKY CONDITION/PRESENT WEATHER
  TMP    - TEMPERATURE IN FAHRENHEIT
  DWPT   - DEWPOINT IN FAHRENHEIT
  RH     - RELATIVE HUMIDITY IN PERCENT
  WIND   - DIRECTION AND SPEED IN MPH
  PRES   - MEAN SEA LEVEL PRESSURE IN INCHES OF HG
  WCI    - WIND CHILL INDEX
  VSB    - VISIBILITY IN MILES
  HX     - HEAT INDEX
  TC     - TEMPERATURE IN CELSIUS
  VRB    - VARIABLE WIND DIRECTION
  N/A    - NOT AVAILABLE
  
      

Other recent Regional Weather Roundups

Wed May 12, 4:04am

Wed May 12, 3:04am

Wed May 12, 2:04am

Wed May 12, 1:04am

Wed May 12, 12:05am

Tue May 11, 11:05pm

Tue May 11, 10:04pm

Tue May 11, 9:05pm

Tue May 11, 8:05pm

Tue May 11, 7:04pm

Tue May 11, 6:04pm

Tue May 11, 5:04pm

Tue May 11, 4:05pm

Tue May 11, 3:04pm

Tue May 11, 2:05pm

Tue May 11, 1:04pm

Tue May 11, 12:05pm

Tue May 11, 11:05am

Tue May 11, 10:04am

Tue May 11, 9:04am

Tue May 11, 8:04am

Tue May 11, 7:05am

Tue May 11, 6:04am

Tue May 11, 5:04am

Tue May 11, 4:04am

Tue May 11, 3:04am

Tue May 11, 2:04am

Tue May 11, 1:04am

Tue May 11, 12:04am

Mon May 10, 11:04pm

Mon May 10, 10:04pm

Mon May 10, 9:05pm

Mon May 10, 8:04pm

Mon May 10, 7:05pm

Mon May 10, 6:04pm

Mon May 10, 5:04pm

Mon May 10, 4:04pm

Mon May 10, 3:04pm

Mon May 10, 2:04pm

Mon May 10, 1:04pm

Mon May 10, 12:04pm

Mon May 10, 11:05am

Mon May 10, 10:04am

Mon May 10, 9:04am

Mon May 10, 8:04am

Mon May 10, 7:04am

Mon May 10, 6:04am

Mon May 10, 5:05am

Mon May 10, 4:04am

Mon May 10, 3:04am

Mon May 10, 2:04am

Mon May 10, 1:04am

Mon May 10, 12:04am

Sun May 9, 11:04pm

Sun May 9, 10:04pm

Sun May 9, 9:04pm

Sun May 9, 8:04pm

Sun May 9, 7:05pm

Sun May 9, 6:04pm

Sun May 9, 5:04pm

Sun May 9, 4:04pm

Sun May 9, 3:04pm

Sun May 9, 2:04pm

Sun May 9, 1:05pm

Sun May 9, 12:04pm

Sun May 9, 11:05am

Sun May 9, 10:04am

Sun May 9, 9:04am

Sun May 9, 8:04am

Sun May 9, 7:04am

Sun May 9, 6:04am

Sun May 9, 5:04am

Sun May 9, 4:04am

Sun May 9, 3:04am

Sun May 9, 2:04am

Sun May 9, 1:05am

Sun May 9, 12:04am

Sat May 8, 11:05pm

Sat May 8, 10:04pm

Sat May 8, 9:05pm

Sat May 8, 8:04pm

Sat May 8, 7:04pm

Sat May 8, 6:04pm

Sat May 8, 5:05pm

Sat May 8, 4:04pm

Sat May 8, 3:05pm

Sat May 8, 2:05pm

Sat May 8, 1:05pm

Sat May 8, 12:04pm

Sat May 8, 11:05am

Sat May 8, 10:04am

Sat May 8, 9:04am

Sat May 8, 8:04am

Sat May 8, 7:04am

Sat May 8, 6:04am

Sat May 8, 5:04am

Sat May 8, 4:04am

Sat May 8, 3:04am

Sat May 8, 2:04am

Sat May 8, 1:05am

Sat May 8, 12:04am

Fri May 7, 11:04pm

Fri May 7, 10:05pm

Fri May 7, 9:04pm

Fri May 7, 8:04pm

Fri May 7, 7:05pm

Fri May 7, 6:04pm

Fri May 7, 5:05pm

Fri May 7, 4:04pm

Fri May 7, 3:04pm

Fri May 7, 2:05pm

Fri May 7, 1:04pm

Fri May 7, 12:04pm

Fri May 7, 11:05am

Fri May 7, 10:04am

Fri May 7, 9:04am

Fri May 7, 8:05am

Fri May 7, 7:04am

Fri May 7, 6:04am

Fri May 7, 5:04am

Fri May 7, 4:04am

Fri May 7, 3:04am

Fri May 7, 2:05am

Fri May 7, 1:04am

Fri May 7, 12:05am

Thu May 6, 11:04pm

Thu May 6, 10:04pm

Thu May 6, 9:05pm

Thu May 6, 8:04pm

Thu May 6, 7:04pm

Thu May 6, 6:04pm

Thu May 6, 5:05pm

Thu May 6, 4:04pm

Thu May 6, 2:05pm

Thu May 6, 1:04pm

Thu May 6, 12:04pm

Thu May 6, 11:04am

Thu May 6, 10:04am

Thu May 6, 9:04am

Thu May 6, 8:04am

Thu May 6, 7:04am

Thu May 6, 6:04am

Thu May 6, 5:04am

Thu May 6, 4:04am

Thu May 6, 3:04am

Thu May 6, 2:05am

Thu May 6, 1:04am

Thu May 6, 12:05am

Wed May 5, 11:04pm

Wed May 5, 10:04pm

Wed May 5, 9:05pm

Wed May 5, 8:04pm

Wed May 5, 7:05pm

Wed May 5, 6:04pm

Wed May 5, 5:04pm

Wed May 5, 4:04pm

Wed May 5, 3:04pm

Wed May 5, 2:05pm

Wed May 5, 1:05pm

Wed May 5, 12:04pm

Wed May 5, 11:05am

Wed May 5, 10:04am

Wed May 5, 9:04am

Wed May 5, 8:04am

Wed May 5, 7:04am

Wed May 5, 6:05am

Wed May 5, 5:04am

Meta data:

ID: 40c28a17-237e-4355-8e13-f2150ec3d23a
Link: https://api.weather.gov/products/40c28a17-237e-4355-8e13-f2150ec3d23a